Regional Weather Roundup
Issued by NWS Charleston, SC

Current Version | Previous Version | Graphics & Text | Print | Product List | Glossary On
Versions: 1 2 3 4 5 6 7 8 9 10 11 12 13 14 15 16 17 18 19 20 21 22 23 24 25 26 27 28 29 30 31 32 33 34 35 36 37 38 39 40 41 42 43 44 45 46 47 48 49 50
804 ASUS42 KCHS 231712 RWRCHS REGIONAL WEATHER ROUNDUP NATIONAL WEATHER SERVICE CHARLESTON SC 1200 PM EST THU NOV 23 2017 NOTE: "FAIR" INDICATES FEW OR NO CLOUDS BELOW 12,000 FEET WITH NO SIGNIFICANT WEATHER AND/OR OBSTRUCTIONS TO VISIBILITY. NOT ALL STATIONS ARE QUALITY CONTROLLED. USE DATA WITH CAUTION... ESPECIALLY DEWPOINT OBSERVATIONS. SCZ027-030-031-034>040-042>050-231800- ...SOUTHEAST SOUTH CAROLINA... CITY SKY/WX TMP DP RH WIND PRES REMARKS N CHARLESTON LGT RAIN 48 47 96 N7 30.05F WATERFRONT PRK NOT AVBL JOHNS ISLAND LGT RAIN 50 50 100 N8 30.04F PINOPOLIS N/A 48 43 81 NE7 30.01F MONCKS CORNER DRIZZLE 46 41 81 N6 30.07F SUMMERVILLE RAIN 46 45 93 N6 30.07F BEAUFORT MCAS LGT RAIN 50 50 100 N8 30.04F BEAUFORT ARPT LGT RAIN 50 48 93 NE12 30.03F HILTON HEAD IS RAIN 52 50 93 N12 30.03F WALTERBORO RAIN 45 43 93 CALM 30.07F ALLENDALE CLOUDY 48 41 76 VRB3 30.06F ...SOUTHERN MIDLANDS AND PEE DEE... CITY SKY/WX TMP DP RH WIND PRES REMARKS GEORGETOWN DRIZZLE 46 46 100 NE7 30.07F KINGSTREE FAIR 45 36 70 N3 30.10F ORANGEBURG CLOUDY 48 36 63 NE6 30.09F BARNWELL N/A 52 39 62 N8 30.09S AIKEN FAIR 52 34 50 NE6 30.11F MANNING FAIR 46 36 66 MISG 30.09F COLUMBIA CLOUDY 52 35 52 VRB5 30.09F SUMTER CLOUDY 48 33 55 NE10 30.08F FLORENCE CLOUDY 48 34 58 NE8 30.11F MYRTLE BEACH LGT RAIN 48 39 71 N8 30.08F N MYRTLE BEACH CLOUDY 48 39 71 N8 30.08F $$ GAZ063-065-086>088-099>101-113>116-118-119-134>141-150-231800- ...SOUTHEAST GEORGIA... CITY SKY/WX TMP DP RH WIND PRES REMARKS SAVANNAH ARPT RAIN 49 48 97 NE7 30.03F FOG HUNTER AAF RAIN 50 48 91 NE5 30.00F FOG FORT STEWART RAIN 49 47 93 NE6 30.00F STATESBORO DRIZZLE 50 45 81 NE3 30.04F SYLVANIA CLOUDY 51 47 86 E7 30.06F CLAXTON LGT RAIN 50 48 93 NE8 30.04F ...CSRA...CENTRAL AND FAR SOUTHEAST GEORGIA... CITY SKY/WX TMP DP RH WIND PRES REMARKS THOMSON PTSUNNY 54 36 50 SE6 30.12F AUGUSTA-BUSH CLOUDY 54 35 48 NE6 30.07F AUGUSTA-DANIEL MOSUNNY 55 35 47 NE8 30.08F SWAINSBORO PTSUNNY 54 41 62 E7 30.04F VIDALIA CLOUDY 54 48 82 NE8 30.02F EASTMAN FAIR 61 35 37 E5 30.05F HAZLEHURST PTSUNNY 52 49 88 NE5 30.02S ALMA CLOUDY 54 50 86 NE6 29.99F WAYCROSS DRIZZLE 55 52 90 NE7 29.99F JESUP LGT RAIN 52 48 87 CALM 30.01F BAXLEY LGT RAIN 52 52 100 E7 30.01F BRUNSWICK LGT RAIN 55 54 94 NE8 30.00F SAINT SIMONS RAIN 59 58 96 NE13 29.98F FOG $$ SCZ027-028-034-036>038-045-046-048>050-GAZ119-141-231800- ...LAKE AND SUPPLEMENTAL COASTAL OBSERVATIONS... STATION/POSITION TIME TEMP WIND PRES WAVE SWELL AIR SEA DIR/SP/G HT/PER HT/PER/DIR (UTC) (F) (DEG/KT/KT) (MB) (FT/S) (FT/S/D) WINYAH BAY 1545 49 30/ 6 1019.0 LAKE MURRAY 1620 49 40/ 2/ 6 1019.0 ACE BASIN NERRS 1545 48 10/ 3 1018.0 FORT PULASKI 1648 52 62 30/ 9/ 11 1017.0F SAPELO ISLAND 1600 56 40/ 9 1017.0 $$ ANZ835-935-AMZ111-154-330-350-352-354-370-450-454-472-231800- ...C-MAN AND BUOY OBSERVATIONS... STATION/POSITION TIME TEMP WIND PRES WAVE SWELL AIR SEA DIR/SP/G HT/PER HT/PER/DIR (UTC) (F) (DEG/KT/KT) (MB) (FT/S) (FT/S/D) BUOY 41004 1650 65 75 30/ 19/ 25 1015.2F 7/ 6 2/120/ 9 BUOY 41008 1650 63 67 40/ 19/ 23 1014.8F 6/ 6 2/120/ 9 FOLLY BEACH CMAN 1600 53 20/ 11/ 13 1018.3F CAPERS NEARSHORE 1608 52 62 30/ 17/ 23 1016.9F FRIPP NEARSHORE 1608 52 62 40/ 10/ 23 1016.8F STATION/POSITION TIME TEMP WIND PRES WAVE SWELL AIR SEA DIR/SP/G HT/PER HT/PER/DIR (UTC) (F) (DEG/KT/KT) (MB) (FT/S) (FT/S/D) 5E ST. MARYS GA 1630 67 N/A 6/ 6 FRYING PAN BUOY 1650 61 72 30/ 19/ 25 1016.5F 6/ 9 3/120/ 9 BUOY 41025 1650 57 71 360/ 14/ 17 1018.5F 6/ 9 5/140/ 9 CAPE LOOKOUT NC 1600 30/ 12/ 15 1020.0F BUOY 41002 1650 72 76 50/ 16/ 19 1013.8F 7/ 9 5/100/ 9 BUOY 41010 NOT AVBL ST AUGUSTINE FL 1700 66 69 360/ 16/ 17 1012.4F $$

USA.gov is the U.S. government's official web portal to all federal, state and local government web resources and services.